This is the latest recevied weather packets stored in our database for station/object WP4PW. If no packets are shown the sender has not sent any weather packets the latest 10 day(s).
| Time | Temp. | Humidity | Pressure | Rain* | Wind** | Luminosity | Snow |
|---|---|---|---|---|---|---|---|
| 1777736090 | 30° C | 73% | 1021.6 hPa | 0 mm | - | 801 W/m² | - |
| 1777735786 | 30.56° C | 76% | 1021.8 hPa | 0 mm | - | 798 W/m² | - |
| 1777735484 | 29.44° C | 77% | 1021.8 hPa | 0 mm | - | 792 W/m² | - |
| 1777735182 | 29.44° C | 76% | 1021.9 hPa | 0 mm | - | 786 W/m² | - |
| 1777734878 | 30° C | 78% | 1021.9 hPa | 0 mm | - | 784 W/m² | - |
| 1777734576 | 28.89° C | 80% | 1021.9 hPa | 0 mm | - | 777 W/m² | - |
| 1777734273 | 29.44° C | 77% | 1021.8 hPa | 0 mm | - | 769 W/m² | - |
| 1777733968 | 30° C | 77% | 1022 hPa | 0 mm | - | 761 W/m² | - |
| 1777733666 | 30° C | 77% | 1021.8 hPa | 0 mm | - | 753 W/m² | - |
| 1777733362 | 30° C | 75% | 1021.9 hPa | 0 mm | - | 744 W/m² | - |
| 1777733059 | 28.89° C | 78% | 1021.7 hPa | 0 mm | - | 736 W/m² | - |
| 1777732755 | 30° C | 77% | 1021.7 hPa | 0 mm | - | 726 W/m² | - |
| 1777732452 | 29.44° C | 77% | 1021.9 hPa | 0 mm | - | 718 W/m² | - |
| 1777732150 | 29.44° C | 77% | 1021.8 hPa | 0 mm | - | 706 W/m² | - |
| 1777731846 | 30° C | 77% | 1021.7 hPa | 0 mm | - | 698 W/m² | - |
| 1777731543 | 29.44° C | 76% | 1021.7 hPa | 0 mm | - | 687 W/m² | - |
| 1777731241 | 29.44° C | 77% | 1021.7 hPa | 0 mm | - | 675 W/m² | - |
| 1777730938 | 30° C | 78% | 1022.1 hPa | 0 mm | - | 668 W/m² | - |
| 1777730636 | 29.44° C | 77% | 1021.7 hPa | 0 mm | - | 653 W/m² | - |
| 1777730332 | 30° C | 76% | 1021.9 hPa | 0 mm | - | 645 W/m² | - |
| 1777730029 | 29.44° C | 76% | 1021.9 hPa | 0 mm | - | 639 W/m² | - |
| 1777729725 | 30° C | 77% | 1021.8 hPa | 0 mm | - | 630 W/m² | - |
| 1777729422 | 29.44° C | 78% | 1021.7 hPa | 0 mm | - | 624 W/m² | - |
| 1777729118 | 29.44° C | 77% | 1021.7 hPa | 0 mm | - | 613 W/m² | - |
| 1777728815 | 29.44° C | 80% | 1021.7 hPa | 0 mm | - | 655 W/m² | - |
* Rain latest hour (hover to see other rain measurements)
** Current wind speed in m/s (hover to see current wind gust speed)